Location: Melbourne
(37.8170°S, 144.9670°E)
Time: 10:00:23
(UTC+10:00)

Vanguard 1 Rocket - Visible Passes

Search period start: 28 September 2016 00:00
Search period end: 08 October 2016 01:00
Orbit: 651 x 4226 km, 34.3° (Epoch: 25 September)

Date Brightness Start Highest point End Pass type
(mag) Time Alt. Az. Time Alt. Az. Time Alt. Az.
28 Sep 8.0 03:44:08 35° NNE 03:44:08 35° NNE 03:48:40 10° NE visible
29 Sep 8.5 04:54:30 17° NW 04:56:57 23° NNW 05:02:27 10° NNE visible
29 Sep 9.9 20:25:33 10° N 20:29:26 15° N 20:29:26 15° N visible
30 Sep 8.4 03:47:35 26° NNE 03:47:35 26° NNE 03:51:14 10° NE visible
30 Sep 10.0 19:16:23 10° N 19:19:28 11° NNE 19:22:08 10° NE visible
30 Sep 10.1 21:38:17 10° NW 21:40:10 15° NNW 21:40:10 15° NNW visible
01 Oct 8.8 04:58:00 13° NW 05:00:08 15° NNW 05:03:52 10° NNE visible
01 Oct 9.5 20:26:15 10° NNW 20:33:34 23° NNE 20:33:34 23° NNE visible
02 Oct 8.8 04:51:10 18° N 04:51:10 18° N 04:53:32 10° NNE visible
02 Oct 9.7 20:14:50 10° N 20:22:43 18° NNE 20:26:57 13° NE visible
02 Oct 9.7 22:40:22 10° NW 22:44:18 22° NW 22:44:18 22° NW visible
03 Oct 9.0 21:27:36 10° NW 21:37:40 32° NNE 21:37:40 32° NNE visible
04 Oct 9.3 04:54:53 11° N 04:54:53 11° N 04:55:21 10° NNE visible
04 Oct 9.5 20:15:07 10° NNW 20:25:56 25° NNE 20:31:01 16° ENE visible
04 Oct 9.4 22:42:42 10° WNW 22:48:21 30° NW 22:48:21 30° NW visible
05 Oct 8.6 21:29:22 10° NW 21:40:57 41° NNE 21:41:41 40° NNE visible
05 Oct 10.4 23:58:33 10° WNW 23:59:01 11° WNW 23:59:01 11° WNW visible
06 Oct 9.4 20:16:06 10° NNW 20:29:06 33° NNE 20:34:59 17° ENE visible
06 Oct 9.0 22:45:13 10° WNW 22:52:19 38° NW 22:52:19 38° NW visible
07 Oct 8.4 21:31:24 10° NW 21:44:05 50° NNE 21:45:35 46° NE visible
08 Oct 10.2 00:01:27 10° W 00:02:54 15° W 00:02:54 15° W visible
